Time,TemperatureF,DewpointF,PressureIn,WindDirection,WindDirectionDegrees,WindSpeedMPH,WindSpeedGustMPH,Humidity,HourlyPrecipIn,Conditions,Clouds,dailyrainin,SoftwareType,DateUTC
2013-02-06 00:00:00,26.4,21.4,29.89,East,90,0.0,0.0,81,0.00,CLR,,0.00,WeatherDisplay:10.37,2013-02-06 05:00:00,
2013-02-06 00:05:00,26.4,21.4,29.89,East,90,0.0,0.0,81,0.00,CLR,,0.00,WeatherDisplay:10.37,2013-02-06 05:05:00,
2013-02-06 00:10:00,26.4,21.4,29.89,East,90,0.0,0.0,81,0.00,CLR,,0.00,WeatherDisplay:10.37,2013-02-06 05:10:00,
2013-02-06 00:15:00,26.2,21.2,29.90,East,90,0.0,0.0,81,0.00,CLR,,0.00,WeatherDisplay:10.37,2013-02-06 05:15:00,
2013-02-06 00:20:00,26.4,21.4,29.89,East,90,0.0,0.0,81,0.00,CLR,,0.00,WeatherDisplay:10.37,2013-02-06 05:20:00,
2013-02-06 00:25:00,26.4,21.4,29.89,East,90,0.0,0.0,81,0.00,CLR,,0.00,WeatherDisplay:10.37,2013-02-06 05:25:00,
2013-02-06 00:30:00,26.4,21.4,29.90,ESE,102,0.0,0.0,81,0.00,CLR,,0.00,WeatherDisplay:10.37,2013-02-06 05:30:00,
2013-02-06 00:35:00,26.4,21.4,29.90,ESE,112,0.0,0.0,81,0.00,CLR,,0.00,WeatherDisplay:10.37,2013-02-06 05:35:00,
2013-02-06 00:40:00,26.4,21.4,29.90,ESE,112,0.0,0.0,81,0.00,CLR,,0.00,WeatherDisplay:10.37,2013-02-06 05:40:00,
2013-02-06 00:45:00,26.4,21.7,29.90,ESE,112,0.0,0.0,82,0.00,CLR,,0.00,WeatherDisplay:10.37,2013-02-06 05:45:00,
2013-02-06 00:50:00,26.4,21.7,29.90,ESE,112,0.0,0.0,82,0.00,CLR,,0.00,WeatherDisplay:10.37,2013-02-06 05:50:00,
2013-02-06 00:55:00,26.2,21.5,29.90,ESE,112,0.0,0.0,82,0.00,CLR,,0.00,WeatherDisplay:10.37,2013-02-06 05:55:00,
2013-02-06 01:00:00,26.4,21.7,29.90,ESE,112,0.0,0.0,82,0.00,CLR,,0.00,WeatherDisplay:10.37,2013-02-06 06:00:00,
2013-02-06 01:05:00,26.4,21.7,29.90,ESE,112,0.0,0.0,82,0.00,CLR,,0.00,WeatherDisplay:10.37,2013-02-06 06:05:00,
2013-02-06 01:10:00,26.4,21.7,29.90,ESE,112,0.0,0.0,82,0.00,CLR,,0.00,WeatherDisplay:10.37,2013-02-06 06:10:00,
2013-02-06 01:15:00,26.2,21.5,29.90,ESE,112,0.0,0.0,82,0.00,CLR,,0.00,WeatherDisplay:10.37,2013-02-06 06:15:00,
2013-02-06 01:20:00,26.2,21.5,29.91,ESE,112,0.0,0.0,82,0.00,CLR,,0.00,WeatherDisplay:10.37,2013-02-06 06:20:00,
2013-02-06 01:25:00,26.1,21.4,29.91,ESE,112,0.0,0.0,82,0.00,CLR,,0.00,WeatherDisplay:10.37,2013-02-06 06:25:00,
2013-02-06 01:30:00,26.1,21.3,29.91,ESE,112,0.0,0.0,82,0.00,CLR,,0.00,WeatherDisplay:10.37,2013-02-06 06:30:00,
2013-02-06 01:35:00,26.1,21.3,29.91,ESE,112,0.0,0.0,82,0.00,CLR,,0.00,WeatherDisplay:10.37,2013-02-06 06:35:00,
2013-02-06 01:40:00,26.1,21.3,29.92,ESE,112,0.0,0.0,82,0.00,CLR,,0.00,WeatherDisplay:10.37,2013-02-06 06:40:00,
2013-02-06 01:45:00,26.1,21.3,29.92,ESE,112,0.0,0.0,82,0.00,CLR,,0.00,WeatherDisplay:10.37,2013-02-06 06:45:00,
2013-02-06 01:50:00,26.1,21.3,29.92,ESE,112,0.0,0.0,82,0.00,CLR,,0.00,WeatherDisplay:10.37,2013-02-06 06:50:00,
2013-02-06 01:55:00,26.1,21.3,29.92,ESE,112,0.0,0.0,82,0.00,CLR,,0.00,WeatherDisplay:10.37,2013-02-06 06:55:00,
2013-02-06 02:00:00,26.1,21.3,29.92,ESE,112,0.0,0.0,82,0.00,CLR,,0.00,WeatherDisplay:10.37,2013-02-06 07:00:00,
2013-02-06 02:05:00,26.1,21.3,29.92,ESE,112,0.0,0.0,82,0.00,CLR,,0.00,WeatherDisplay:10.37,2013-02-06 07:05:00,
2013-02-06 02:10:00,26.1,21.3,29.92,ESE,112,0.0,0.0,82,0.00,CLR,,0.00,WeatherDisplay:10.37,2013-02-06 07:10:00,
2013-02-06 02:15:00,25.9,21.1,29.93,ESE,112,0.0,0.0,82,0.00,CLR,,0.00,WeatherDisplay:10.37,2013-02-06 07:15:00,
2013-02-06 02:20:00,25.9,21.1,29.93,ESE,112,0.0,0.0,82,0.00,CLR,,0.00,WeatherDisplay:10.37,2013-02-06 07:20:00,
2013-02-06 02:25:00,25.9,21.1,29.94,ESE,112,0.0,0.0,82,0.00,CLR,,0.00,WeatherDisplay:10.37,2013-02-06 07:25:00,
2013-02-06 02:30:00,25.9,21.1,29.94,ESE,112,0.0,0.0,82,0.00,CLR,,0.00,WeatherDisplay:10.37,2013-02-06 07:30:00,
2013-02-06 02:35:00,25.9,21.1,29.94,ESE,112,0.0,0.0,82,0.00,CLR,,0.00,WeatherDisplay:10.37,2013-02-06 07:35:00,
2013-02-06 02:40:00,25.9,21.1,29.95,ESE,112,0.0,0.0,82,0.00,CLR,,0.00,WeatherDisplay:10.37,2013-02-06 07:40:00,
2013-02-06 02:45:00,25.9,21.1,29.95,ESE,112,0.0,0.0,82,0.00,CLR,,0.00,WeatherDisplay:10.37,2013-02-06 07:45:00,
2013-02-06 02:50:00,25.9,21.1,29.95,ESE,112,0.0,0.0,82,0.00,CLR,,0.00,WeatherDisplay:10.37,2013-02-06 07:50:00,
2013-02-06 02:55:00,26.0,21.2,29.96,ESE,112,0.0,0.0,82,0.00,CLR,,0.00,WeatherDisplay:10.37,2013-02-06 07:55:00,
2013-02-06 03:00:00,26.1,21.3,29.97,ESE,112,0.0,0.0,82,0.00,CLR,,0.00,WeatherDisplay:10.37,2013-02-06 08:00:00,
2013-02-06 03:05:00,26.1,21.3,29.97,ESE,112,0.0,0.0,82,0.00,CLR,,0.00,WeatherDisplay:10.37,2013-02-06 08:05:00,
2013-02-06 03:10:00,26.1,21.3,29.97,ESE,112,0.0,0.0,82,0.00,CLR,,0.00,WeatherDisplay:10.37,2013-02-06 08:10:00,
2013-02-06 03:15:00,26.1,21.3,29.97,SE,141,0.0,0.0,82,0.00,CLR,,0.00,WeatherDisplay:10.37,2013-02-06 08:15:00,
2013-02-06 03:20:00,26.1,21.3,29.97,South,176,0.0,0.0,82,0.00,CLR,,0.00,WeatherDisplay:10.37,2013-02-06 08:20:00,
2013-02-06 03:25:00,26.1,21.6,29.97,South,180,0.0,0.0,83,0.00,CLR,,0.00,WeatherDisplay:10.37,2013-02-06 08:25:00,
2013-02-06 03:30:00,26.2,21.8,29.97,SE,125,0.0,0.0,83,0.00,CLR,,0.00,WeatherDisplay:10.37,2013-02-06 08:30:00,
2013-02-06 03:35:00,26.2,21.8,29.97,NE,40,0.0,0.0,83,0.00,CLR,,0.00,WeatherDisplay:10.37,2013-02-06 08:35:00,
2013-02-06 03:40:00,26.2,21.8,29.97,NNE,22,0.0,0.0,83,0.00,CLR,,0.00,WeatherDisplay:10.37,2013-02-06 08:40:00,
2013-02-06 03:45:00,26.2,21.5,29.97,NNE,22,0.0,0.0,82,0.00,CLR,,0.00,WeatherDisplay:10.37,2013-02-06 08:45:00,
2013-02-06 03:50:00,26.2,21.8,29.97,NE,54,0.0,0.0,83,0.00,CLR,,0.00,WeatherDisplay:10.37,2013-02-06 08:50:00,
2013-02-06 03:55:00,26.1,21.3,29.97,East,86,0.0,0.0,82,0.00,CLR,,0.00,WeatherDisplay:10.37,2013-02-06 08:55:00,
2013-02-06 04:00:00,26.2,21.5,29.96,East,90,0.0,0.0,82,0.00,CLR,,0.00,WeatherDisplay:10.37,2013-02-06 09:00:00,
2013-02-06 04:05:00,26.2,21.5,29.97,East,90,0.0,0.0,82,0.00,CLR,,0.00,WeatherDisplay:10.37,2013-02-06 09:05:00,
2013-02-06 04:10:00,26.1,21.3,29.97,East,90,0.0,0.0,82,0.00,CLR,,0.00,WeatherDisplay:10.37,2013-02-06 09:10:00,
2013-02-06 04:15:00,26.1,21.3,29.99,East,90,0.0,0.0,82,0.00,CLR,,0.00,WeatherDisplay:10.37,2013-02-06 09:15:00,
2013-02-06 04:20:00,26.1,21.3,29.99,East,90,0.0,0.0,82,0.00,CLR,,0.00,WeatherDisplay:10.37,2013-02-06 09:20:00,
2013-02-06 04:25:00,26.1,21.3,30.00,East,90,0.0,0.0,82,0.00,CLR,,0.00,WeatherDisplay:10.37,2013-02-06 09:25:00,
2013-02-06 04:30:00,26.1,21.3,30.00,East,90,0.0,0.0,82,0.00,CLR,,0.00,WeatherDisplay:10.37,2013-02-06 09:30:00,
2013-02-06 04:35:00,26.1,21.3,30.01,West,270,0.0,0.0,82,0.00,CLR,,0.00,WeatherDisplay:10.37,2013-02-06 09:35:00,
2013-02-06 04:40:00,26.1,21.3,30.02,West,270,0.0,0.0,82,0.00,CLR,,0.00,WeatherDisplay:10.37,2013-02-06 09:40:00,
2013-02-06 04:45:00,26.2,21.5,30.02,West,270,0.0,0.0,82,0.00,CLR,,0.00,WeatherDisplay:10.37,2013-02-06 09:45:00,
2013-02-06 04:50:00,26.1,21.3,30.02,South,181,0.0,0.0,82,0.00,CLR,,0.00,WeatherDisplay:10.37,2013-02-06 09:50:00,
2013-02-06 04:55:00,26.2,21.5,30.02,SE,135,0.0,0.0,82,0.00,CLR,,0.00,WeatherDisplay:10.37,2013-02-06 09:55:00,
2013-02-06 05:00:00,26.2,21.5,30.02,SE,135,0.0,0.0,82,0.00,CLR,,0.00,WeatherDisplay:10.37,2013-02-06 10:00:00,
2013-02-06 05:05:00,26.2,21.5,30.02,SE,135,0.0,0.0,82,0.00,CLR,,0.00,WeatherDisplay:10.37,2013-02-06 10:05:00,
2013-02-06 05:10:00,26.2,21.5,30.02,SE,135,0.0,0.0,82,0.00,CLR,,0.00,WeatherDisplay:10.37,2013-02-06 10:10:00,
2013-02-06 05:15:00,26.4,21.7,30.02,SE,135,0.0,0.0,82,0.00,CLR,,0.00,WeatherDisplay:10.37,2013-02-06 10:15:00,
2013-02-06 05:20:00,26.4,21.3,30.02,SE,135,0.0,0.0,81,0.00,CLR,,0.00,WeatherDisplay:10.37,2013-02-06 10:20:00,
2013-02-06 05:25:00,26.4,21.4,30.02,SE,130,0.0,0.0,81,0.00,CLR,,0.00,WeatherDisplay:10.37,2013-02-06 10:25:00,
2013-02-06 05:30:00,26.4,21.4,30.02,ESE,118,0.0,0.0,81,0.00,CLR,,0.00,WeatherDisplay:10.37,2013-02-06 10:30:00,
2013-02-06 05:35:00,26.6,21.6,30.02,East,87,0.0,0.0,81,0.00,CLR,,0.00,WeatherDisplay:10.37,2013-02-06 10:35:00,
2013-02-06 05:40:00,26.4,21.4,30.03,NE,49,0.0,0.0,81,0.00,CLR,,0.00,WeatherDisplay:10.37,2013-02-06 10:40:00,
2013-02-06 05:45:00,26.6,21.6,30.03,NE,56,0.0,0.0,81,0.00,CLR,,0.00,WeatherDisplay:10.37,2013-02-06 10:45:00,
2013-02-06 05:55:00,26.8,21.7,30.04,East,97,0.0,0.0,81,0.00,CLR,,0.00,WeatherDisplay:10.37,2013-02-06 10:55:00,
2013-02-06 06:00:00,26.8,21.7,30.04,ESE,112,0.0,0.0,81,0.00,CLR,,0.00,WeatherDisplay:10.37,2013-02-06 11:00:00,
2013-02-06 06:05:00,26.8,21.7,30.05,ESE,103,0.0,0.0,81,0.00,CLR,,0.00,WeatherDisplay:10.37,2013-02-06 11:05:00,
2013-02-06 06:10:00,26.8,21.7,30.05,East,92,0.0,0.0,81,0.00,CLR,,0.00,WeatherDisplay:10.37,2013-02-06 11:10:00,
2013-02-06 06:15:00,26.8,21.7,30.05,East,91,0.0,0.0,81,0.00,CLR,,0.00,WeatherDisplay:10.37,2013-02-06 11:15:00,
2013-02-06 06:20:00,26.8,21.7,30.06,ESE,112,0.0,0.0,81,0.00,CLR,,0.00,WeatherDisplay:10.37,2013-02-06 11:20:00,
2013-02-06 06:25:00,27.0,21.9,30.07,SE,129,0.0,0.0,81,0.00,CLR,,0.00,WeatherDisplay:10.37,2013-02-06 11:25:00,
2013-02-06 06:30:00,27.0,21.9,30.08,SSE,166,0.0,0.0,81,0.00,CLR,,0.00,WeatherDisplay:10.37,2013-02-06 11:30:00,
2013-02-06 06:35:00,27.0,21.9,30.08,SW,214,0.0,0.0,81,0.00,CLR,,0.00,WeatherDisplay:10.37,2013-02-06 11:35:00,
2013-02-06 06:40:00,27.0,21.9,30.08,WNW,282,0.0,5.0,81,0.00,CLR,,0.00,WeatherDisplay:10.37,2013-02-06 11:40:00,
2013-02-06 06:45:00,27.0,21.9,30.08,NW,322,0.0,0.0,81,0.00,CLR,,0.00,WeatherDisplay:10.37,2013-02-06 11:45:00,
2013-02-06 06:50:00,27.0,21.9,30.08,ENE,57,0.0,0.0,81,0.00,CLR,,0.00,WeatherDisplay:10.37,2013-02-06 11:50:00,
2013-02-06 06:55:00,27.0,21.9,30.08,East,83,0.0,0.0,81,0.00,CLR,,0.00,WeatherDisplay:10.37,2013-02-06 11:55:00,
2013-02-06 07:05:00,27.0,21.9,30.08,ESE,121,0.0,0.0,81,0.00,CLR,,0.00,WeatherDisplay:10.37,2013-02-06 12:05:00,
2013-02-06 07:10:00,26.8,21.7,30.08,SE,135,0.0,0.0,81,0.00,CLR,,0.00,WeatherDisplay:10.37,2013-02-06 12:10:00,
2013-02-06 07:15:00,26.8,21.7,30.08,SE,135,0.0,0.0,81,0.00,CLR,,0.00,WeatherDisplay:10.37,2013-02-06 12:15:00,
2013-02-06 07:20:00,26.8,21.7,30.08,SE,135,0.0,0.0,81,0.00,CLR,,0.00,WeatherDisplay:10.37,2013-02-06 12:20:00,
2013-02-06 07:25:00,26.8,21.7,30.08,SE,135,0.0,0.0,81,0.00,CLR,,0.00,WeatherDisplay:10.37,2013-02-06 12:25:00,
2013-02-06 07:30:00,26.8,21.7,30.08,SE,135,0.0,0.0,81,0.00,CLR,,0.00,WeatherDisplay:10.37,2013-02-06 12:30:00,
2013-02-06 07:35:00,26.7,21.7,30.08,SE,135,0.0,0.0,81,0.00,CLR,,0.00,WeatherDisplay:10.37,2013-02-06 12:35:00,
2013-02-06 07:40:00,26.8,21.7,30.08,SE,135,0.0,0.0,81,0.00,CLR,,0.00,WeatherDisplay:10.37,2013-02-06 12:40:00,
2013-02-06 07:45:00,26.8,21.7,30.09,SSE,147,0.0,0.0,81,0.00,CLR,,0.00,WeatherDisplay:10.37,2013-02-06 12:45:00,
2013-02-06 07:50:00,26.8,21.7,30.09,West,262,0.0,0.0,81,0.00,CLR,,0.00,WeatherDisplay:10.37,2013-02-06 12:50:00,
2013-02-06 07:55:00,26.8,21.7,30.09,West,276,0.0,0.0,81,0.00,CLR,,0.00,WeatherDisplay:10.37,2013-02-06 12:55:00,
2013-02-06 08:00:00,26.8,21.8,30.10,West,278,0.0,0.0,81,0.00,CLR,,0.00,WeatherDisplay:10.37,2013-02-06 13:00:00,
2013-02-06 08:10:00,26.8,21.7,30.10,SSW,212,0.0,0.0,81,0.00,CLR,,0.00,WeatherDisplay:10.37,2013-02-06 13:10:00,
2013-02-06 08:15:00,27.0,21.9,30.10,South,188,0.0,0.0,81,0.00,CLR,,0.00,WeatherDisplay:10.37,2013-02-06 13:15:00,
2013-02-06 08:20:00,27.0,21.9,30.11,South,180,0.0,0.0,81,0.00,CLR,,0.00,WeatherDisplay:10.37,2013-02-06 13:20:00,
2013-02-06 08:25:00,27.0,21.9,30.11,SSE,157,0.0,0.0,81,0.00,CLR,,0.00,WeatherDisplay:10.37,2013-02-06 13:25:00,
2013-02-06 08:30:00,27.1,22.0,30.13,SE,127,0.0,0.0,81,0.00,CLR,,0.00,WeatherDisplay:10.37,2013-02-06 13:30:00,
2013-02-06 08:35:00,27.1,21.8,30.13,ESE,115,0.0,0.0,80,0.00,CLR,,0.00,WeatherDisplay:10.37,2013-02-06 13:35:00,
2013-02-06 08:40:00,27.3,22.0,30.13,ESE,112,0.0,0.0,80,0.00,CLR,,0.00,WeatherDisplay:10.37,2013-02-06 13:40:00,
2013-02-06 08:45:00,27.3,22.0,30.13,ESE,118,0.0,0.0,80,0.00,CLR,,0.00,WeatherDisplay:10.37,2013-02-06 13:45:00,
2013-02-06 08:50:00,27.3,22.0,30.13,SSE,163,0.0,0.0,80,0.00,CLR,,0.00,WeatherDisplay:10.37,2013-02-06 13:50:00,
2013-02-06 08:55:00,27.5,22.1,30.13,SSW,200,0.0,0.0,80,0.00,CLR,,0.00,WeatherDisplay:10.37,2013-02-06 13:55:00,
2013-02-06 09:00:00,27.5,22.1,30.13,SSW,202,0.0,0.0,80,0.00,CLR,,0.00,WeatherDisplay:10.37,2013-02-06 14:00:00,
2013-02-06 09:05:00,27.7,22.3,30.14,SSW,192,0.0,0.0,80,0.00,CLR,,0.00,WeatherDisplay:10.37,2013-02-06 14:05:00,
2013-02-06 09:10:00,27.9,22.2,30.14,South,181,0.0,0.0,79,0.00,CLR,,0.00,WeatherDisplay:10.37,2013-02-06 14:10:00,
2013-02-06 09:15:00,27.9,22.2,30.14,South,180,0.0,0.0,79,0.00,CLR,,0.00,WeatherDisplay:10.37,2013-02-06 14:15:00,
2013-02-06 09:20:00,27.9,22.2,30.14,South,175,0.0,0.0,79,0.00,CLR,,0.00,WeatherDisplay:10.37,2013-02-06 14:20:00,
2013-02-06 09:25:00,28.0,22.4,30.14,SSE,163,0.0,0.0,79,0.00,CLR,,0.00,WeatherDisplay:10.37,2013-02-06 14:25:00,
2013-02-06 09:30:00,28.0,22.1,30.14,SSE,158,0.0,0.0,78,0.00,CLR,,0.00,WeatherDisplay:10.37,2013-02-06 14:30:00,
2013-02-06 09:35:00,28.2,22.2,30.14,South,183,0.0,0.0,78,0.00,CLR,,0.00,WeatherDisplay:10.37,2013-02-06 14:35:00,
2013-02-06 09:40:00,28.2,22.2,30.14,WSW,253,0.0,0.0,78,0.00,CLR,,0.00,WeatherDisplay:10.37,2013-02-06 14:40:00,
2013-02-06 09:45:00,28.2,22.2,30.14,WNW,288,0.0,0.0,78,0.00,CLR,,0.00,WeatherDisplay:10.37,2013-02-06 14:45:00,
2013-02-06 09:50:00,28.4,22.4,30.14,NW,311,0.0,0.0,78,0.00,CLR,,0.00,WeatherDisplay:10.37,2013-02-06 14:50:00,
2013-02-06 09:55:00,28.6,22.3,30.14,NW,315,0.0,0.0,77,0.00,CLR,,0.00,WeatherDisplay:10.37,2013-02-06 14:55:00,
2013-02-06 10:00:00,28.6,22.3,30.16,NW,315,0.0,0.0,77,0.00,CLR,,0.00,WeatherDisplay:10.37,2013-02-06 15:00:00,
2013-02-06 10:05:00,28.6,22.3,30.16,NW,315,0.0,0.0,77,0.00,CLR,,0.00,WeatherDisplay:10.37,2013-02-06 15:05:00,
2013-02-06 10:10:00,28.6,22.3,30.16,NW,317,0.0,0.0,77,0.00,CLR,,0.00,WeatherDisplay:10.37,2013-02-06 15:10:00,
2013-02-06 10:15:00,28.4,22.1,30.16,NNW,338,0.0,0.0,77,0.00,CLR,,0.00,WeatherDisplay:10.37,2013-02-06 15:15:00,
2013-02-06 10:20:00,28.2,21.6,30.16,NE,34,0.0,0.0,76,0.00,CLR,,0.00,WeatherDisplay:10.37,2013-02-06 15:20:00,
2013-02-06 10:25:00,28.2,21.6,30.17,NE,50,0.0,0.0,76,0.00,CLR,,0.00,WeatherDisplay:10.37,2013-02-06 15:25:00,
2013-02-06 10:35:00,28.1,21.2,30.17,ENE,58,0.0,0.0,75,0.00,CLR,,0.00,WeatherDisplay:10.37,2013-02-06 15:35:00,
2013-02-06 10:40:00,28.2,21.0,30.17,East,95,0.0,0.0,74,0.00,CLR,,0.00,WeatherDisplay:10.37,2013-02-06 15:40:00,
2013-02-06 10:45:00,28.4,21.2,30.17,ESE,107,0.0,0.0,74,0.00,CLR,,0.00,WeatherDisplay:10.37,2013-02-06 15:45:00,
2013-02-06 10:50:00,28.6,21.0,30.17,ESE,103,0.0,0.0,73,0.00,CLR,,0.00,WeatherDisplay:10.37,2013-02-06 15:50:00,
2013-02-06 10:55:00,28.6,21.0,30.17,ESE,122,0.0,0.0,73,0.00,CLR,,0.00,WeatherDisplay:10.37,2013-02-06 15:55:00,
2013-02-06 11:00:00,28.8,21.2,30.18,SE,145,0.0,0.0,73,0.00,CLR,,0.00,WeatherDisplay:10.37,2013-02-06 16:00:00,
2013-02-06 11:05:00,28.9,21.0,30.18,SW,216,0.0,0.0,72,0.00,CLR,,0.00,WeatherDisplay:10.37,2013-02-06 16:05:00,
2013-02-06 11:10:00,29.1,20.9,30.18,WNW,283,0.0,0.0,71,0.00,CLR,,0.00,WeatherDisplay:10.37,2013-02-06 16:10:00,
2013-02-06 11:15:00,29.3,21.1,30.18,NW,306,0.0,0.0,71,0.00,CLR,,0.00,WeatherDisplay:10.37,2013-02-06 16:15:00,
2013-02-06 11:20:00,29.7,21.1,30.19,NW,323,0.0,0.0,70,0.00,CLR,,0.00,WeatherDisplay:10.37,2013-02-06 16:20:00,
2013-02-06 11:25:00,30.1,21.1,30.18,North,0,0.0,0.0,69,0.00,CLR,,0.00,WeatherDisplay:10.37,2013-02-06 16:25:00,
2013-02-06 11:30:00,30.4,21.4,30.18,North,8,0.0,0.0,69,0.00,CLR,,0.00,WeatherDisplay:10.37,2013-02-06 16:30:00,
2013-02-06 11:35:00,30.8,21.4,30.18,North,359,0.0,0.0,68,0.00,CLR,,0.00,WeatherDisplay:10.37,2013-02-06 16:35:00,
2013-02-06 11:40:00,31.0,21.3,30.18,NE,36,0.0,0.0,67,0.00,CLR,,0.00,WeatherDisplay:10.37,2013-02-06 16:40:00,
2013-02-06 11:45:00,31.5,21.4,30.18,SSE,157,0.0,0.0,66,0.00,CLR,,0.00,WeatherDisplay:10.37,2013-02-06 16:45:00,
2013-02-06 11:55:00,31.8,21.0,30.18,NNW,335,0.0,0.0,64,0.00,CLR,,0.00,WeatherDisplay:10.37,2013-02-06 16:55:00,
2013-02-06 12:00:00,32.2,21.0,30.17,NNW,336,0.0,0.0,63,0.00,CLR,,0.00,WeatherDisplay:10.37,2013-02-06 17:00:00,
2013-02-06 12:05:00,32.2,20.6,30.18,NNW,345,0.0,0.0,62,0.00,CLR,,0.00,WeatherDisplay:10.37,2013-02-06 17:05:00,
2013-02-06 12:10:00,32.0,19.7,30.17,NW,325,0.0,0.0,60,0.00,CLR,,0.00,WeatherDisplay:10.37,2013-02-06 17:10:00,
2013-02-06 12:15:00,31.8,19.5,30.17,West,273,0.0,0.0,60,0.00,CLR,,0.00,WeatherDisplay:10.37,2013-02-06 17:15:00,
2013-02-06 12:20:00,32.2,19.4,30.17,WSW,251,0.0,0.0,59,0.00,CLR,,0.00,WeatherDisplay:10.37,2013-02-06 17:20:00,
2013-02-06 12:25:00,32.2,19.0,30.18,West,260,0.0,0.0,58,0.00,CLR,,0.00,WeatherDisplay:10.37,2013-02-06 17:25:00,
2013-02-06 12:30:00,32.2,19.0,30.18,NW,311,0.0,0.0,58,0.00,CLR,,0.00,WeatherDisplay:10.37,2013-02-06 17:30:00,
2013-02-06 12:35:00,32.2,18.6,30.17,WNW,295,0.0,0.0,57,0.00,CLR,,0.00,WeatherDisplay:10.37,2013-02-06 17:35:00,
2013-02-06 12:40:00,32.5,18.9,30.18,NW,306,0.0,0.0,57,0.00,CLR,,0.00,WeatherDisplay:10.37,2013-02-06 17:40:00,
2013-02-06 12:45:00,32.7,19.1,30.17,NW,325,0.0,0.0,57,0.00,CLR,,0.00,WeatherDisplay:10.37,2013-02-06 17:45:00,
2013-02-06 12:50:00,32.8,18.8,30.18,NNW,327,1.0,1.0,56,0.00,CLR,,0.00,WeatherDisplay:10.37,2013-02-06 17:50:00,
2013-02-06 12:55:00,32.7,18.3,30.17,NNW,343,1.0,2.0,55,0.00,CLR,,0.00,WeatherDisplay:10.37,2013-02-06 17:55:00,
2013-02-06 13:00:00,32.9,18.5,30.17,North,354,0.0,0.0,55,0.00,CLR,,0.00,WeatherDisplay:10.37,2013-02-06 18:00:00,
2013-02-06 13:05:00,33.1,18.7,30.17,North,2,0.0,0.0,55,0.00,CLR,,0.00,WeatherDisplay:10.37,2013-02-06 18:05:00,
2013-02-06 13:10:00,33.3,18.4,30.17,NNE,24,0.0,0.0,54,0.00,CLR,,0.00,WeatherDisplay:10.37,2013-02-06 18:10:00,
2013-02-06 13:15:00,33.4,18.6,30.17,ENE,73,0.0,0.0,54,0.00,CLR,,0.00,WeatherDisplay:10.37,2013-02-06 18:15:00,
2013-02-06 13:20:00,33.4,18.1,30.18,SE,129,0.0,0.0,53,0.00,CLR,,0.00,WeatherDisplay:10.37,2013-02-06 18:20:00,
2013-02-06 13:25:00,33.4,18.1,30.18,East,92,0.0,0.0,53,0.00,CLR,,0.00,WeatherDisplay:10.37,2013-02-06 18:25:00,
2013-02-06 13:30:00,33.4,17.7,30.18,ENE,66,0.0,0.0,52,0.00,CLR,,0.00,WeatherDisplay:10.37,2013-02-06 18:30:00,
2013-02-06 13:35:00,33.4,17.2,30.18,WSW,248,0.0,0.0,51,0.00,CLR,,0.00,WeatherDisplay:10.37,2013-02-06 18:35:00,
2013-02-06 13:40:00,33.4,17.2,30.18,West,277,0.0,0.0,51,0.02,RA,,0.02,WeatherDisplay:10.37,2013-02-06 18:40:00,
2013-02-06 13:45:00,33.4,16.8,30.19,West,260,0.0,0.0,50,0.00,RA,,0.02,WeatherDisplay:10.37,2013-02-06 18:45:00,
2013-02-06 13:50:00,33.3,16.6,30.19,SW,230,0.0,0.0,50,0.00,CLR,,0.02,WeatherDisplay:10.37,2013-02-06 18:50:00,
2013-02-06 13:55:00,33.4,16.8,30.18,WSW,252,0.0,0.0,50,0.00,CLR,,0.02,WeatherDisplay:10.37,2013-02-06 18:55:00,
2013-02-06 14:00:00,33.4,16.3,30.18,West,276,0.0,1.0,49,0.00,CLR,,0.02,WeatherDisplay:10.37,2013-02-06 19:00:00,
2013-02-06 14:05:00,33.7,16.1,30.18,WNW,299,0.0,0.0,48,0.00,CLR,,0.02,WeatherDisplay:10.37,2013-02-06 19:05:00,
2013-02-06 14:10:00,34.0,16.3,30.18,NNW,330,0.0,0.0,48,0.00,CLR,,0.02,WeatherDisplay:10.37,2013-02-06 19:10:00,
2013-02-06 14:15:00,34.0,15.8,30.18,NNW,339,0.0,0.0,47,0.00,CLR,,0.02,WeatherDisplay:10.37,2013-02-06 19:15:00,
2013-02-06 14:20:00,34.0,15.8,30.18,North,353,0.0,2.0,47,0.00,CLR,,0.02,WeatherDisplay:10.37,2013-02-06 19:20:00,
2013-02-06 14:25:00,33.6,15.0,30.18,East,98,0.0,2.0,46,0.00,CLR,,0.02,WeatherDisplay:10.37,2013-02-06 19:25:00,
2013-02-06 14:30:00,33.8,15.2,30.19,East,79,0.0,0.0,46,0.00,CLR,,0.02,WeatherDisplay:10.37,2013-02-06 19:30:00,
2013-02-06 14:35:00,34.0,14.8,30.19,ENE,71,0.0,0.0,45,0.00,CLR,,0.02,WeatherDisplay:10.37,2013-02-06 19:35:00,
2013-02-06 14:40:00,34.0,14.8,30.19,ENE,59,1.0,1.0,45,0.00,CLR,,0.02,WeatherDisplay:10.37,2013-02-06 19:40:00,
2013-02-06 14:45:00,33.4,13.8,30.19,NW,323,0.0,1.0,44,0.00,CLR,,0.02,WeatherDisplay:10.37,2013-02-06 19:45:00,
2013-02-06 14:50:00,33.3,13.7,30.20,West,278,0.0,2.0,44,0.00,CLR,,0.02,WeatherDisplay:10.37,2013-02-06 19:50:00,
2013-02-06 14:55:00,32.9,12.8,30.20,NW,314,0.0,2.0,43,0.00,CLR,,0.02,WeatherDisplay:10.37,2013-02-06 19:55:00,
2013-02-06 15:00:00,32.7,13.2,30.20,NNW,342,0.0,0.0,44,0.00,CLR,,0.02,WeatherDisplay:10.37,2013-02-06 20:00:00,
2013-02-06 15:05:00,32.7,12.7,30.20,NW,310,0.0,1.0,43,0.00,CLR,,0.02,WeatherDisplay:10.37,2013-02-06 20:05:00,
2013-02-06 15:10:00,32.9,13.3,30.21,North,351,0.0,1.0,44,0.00,CLR,,0.02,WeatherDisplay:10.37,2013-02-06 20:10:00,
2013-02-06 15:15:00,32.9,12.8,30.21,ESE,119,0.0,5.0,43,0.00,CLR,,0.02,WeatherDisplay:10.37,2013-02-06 20:15:00,
2013-02-06 15:20:00,32.9,12.8,30.21,SE,127,0.0,0.0,43,0.00,CLR,,0.02,WeatherDisplay:10.37,2013-02-06 20:20:00,
2013-02-06 15:25:00,33.1,13.0,30.21,ESE,108,1.0,1.0,43,0.00,CLR,,0.02,WeatherDisplay:10.37,2013-02-06 20:25:00,
2013-02-06 15:30:00,32.9,12.8,30.21,NE,36,0.0,1.0,43,0.00,CLR,,0.02,WeatherDisplay:10.37,2013-02-06 20:30:00,
2013-02-06 15:35:00,32.9,12.8,30.21,North,0,0.0,0.0,43,0.00,CLR,,0.02,WeatherDisplay:10.37,2013-02-06 20:35:00,
2013-02-06 15:40:00,32.7,12.7,30.20,North,0,0.0,0.0,43,0.00,CLR,,0.02,WeatherDisplay:10.37,2013-02-06 20:40:00,
2013-02-06 15:45:00,32.4,11.8,30.21,North,352,0.0,0.0,42,0.00,CLR,,0.02,WeatherDisplay:10.37,2013-02-06 20:45:00,
2013-02-06 15:50:00,32.0,10.9,30.21,NNW,341,0.0,0.0,41,0.00,CLR,,0.02,WeatherDisplay:10.37,2013-02-06 20:50:00,
2013-02-06 15:55:00,32.0,10.9,30.21,NNW,338,0.0,0.0,41,0.00,CLR,,0.02,WeatherDisplay:10.37,2013-02-06 20:55:00,
2013-02-06 16:00:00,31.6,10.6,30.21,East,94,0.0,0.0,41,0.00,CLR,,0.02,WeatherDisplay:10.37,2013-02-06 21:00:00,
2013-02-06 16:05:00,31.1,10.1,30.22,East,86,0.0,0.0,41,0.00,CLR,,0.02,WeatherDisplay:10.37,2013-02-06 21:05:00,
2013-02-06 16:10:00,31.1,10.6,30.22,NNE,27,2.0,2.0,42,0.00,CLR,,0.02,WeatherDisplay:10.37,2013-02-06 21:10:00,
2013-02-06 16:15:00,30.7,10.3,30.22,NNE,19,2.0,2.0,42,0.00,CLR,,0.02,WeatherDisplay:10.37,2013-02-06 21:15:00,
2013-02-06 16:20:00,30.6,10.2,30.22,North,10,0.0,0.0,42,0.00,CLR,,0.02,WeatherDisplay:10.37,2013-02-06 21:20:00,
2013-02-06 16:25:00,30.6,10.2,30.22,North,0,0.0,0.0,42,0.00,CLR,,0.02,WeatherDisplay:10.37,2013-02-06 21:25:00,
2013-02-06 16:30:00,30.2,9.8,30.23,NNE,29,0.0,0.0,42,0.00,CLR,,0.02,WeatherDisplay:10.37,2013-02-06 21:30:00,
2013-02-06 16:35:00,29.8,9.5,30.23,ESE,118,0.0,0.0,42,0.00,CLR,,0.02,WeatherDisplay:10.37,2013-02-06 21:35:00,
2013-02-06 16:40:00,29.6,9.3,30.22,SE,135,0.0,0.0,42,0.00,CLR,,0.02,WeatherDisplay:10.37,2013-02-06 21:40:00,
2013-02-06 16:45:00,29.3,9.6,30.22,ESE,121,0.0,0.0,43,0.00,CLR,,0.02,WeatherDisplay:10.37,2013-02-06 21:45:00,
2013-02-06 16:50:00,29.1,9.4,30.22,ESE,112,0.0,0.0,43,0.00,CLR,,0.02,WeatherDisplay:10.37,2013-02-06 21:50:00,
2013-02-06 16:55:00,28.8,9.0,30.23,ESE,111,0.0,0.0,43,0.00,CLR,,0.02,WeatherDisplay:10.37,2013-02-06 21:55:00,
2013-02-06 17:00:00,28.8,9.0,30.23,East,85,0.0,0.0,43,0.00,CLR,,0.02,WeatherDisplay:10.37,2013-02-06 22:00:00,
2013-02-06 17:05:00,28.8,9.0,30.23,ENE,68,0.0,0.0,43,0.00,CLR,,0.02,WeatherDisplay:10.37,2013-02-06 22:05:00,
2013-02-06 17:10:00,28.8,9.0,30.23,ENE,69,0.0,0.0,43,0.00,CLR,,0.02,WeatherDisplay:10.37,2013-02-06 22:10:00,
2013-02-06 17:15:00,27.9,9.2,30.23,East,91,0.0,0.0,45,0.00,CLR,,0.02,WeatherDisplay:10.37,2013-02-06 22:15:00,
2013-02-06 17:20:00,27.5,8.9,30.23,ESE,110,0.0,0.0,45,0.00,CLR,,0.02,WeatherDisplay:10.37,2013-02-06 22:20:00,
2013-02-06 17:25:00,27.5,8.9,30.24,ESE,112,0.0,0.0,45,0.00,CLR,,0.02,WeatherDisplay:10.37,2013-02-06 22:25:00,
2013-02-06 17:30:00,27.5,8.9,30.24,ESE,112,0.0,0.0,45,0.00,CLR,,0.02,WeatherDisplay:10.37,2013-02-06 22:30:00,
2013-02-06 17:35:00,26.4,8.4,30.24,East,91,0.0,0.0,46,0.00,CLR,,0.02,WeatherDisplay:10.37,2013-02-06 22:35:00,
2013-02-06 17:40:00,26.4,8.4,30.24,NE,39,0.0,0.0,46,0.00,CLR,,0.02,WeatherDisplay:10.37,2013-02-06 22:40:00,
2013-02-06 17:45:00,26.4,8.4,30.24,NNE,22,0.0,0.0,46,0.00,CLR,,0.02,WeatherDisplay:10.37,2013-02-06 22:45:00,
2013-02-06 17:50:00,26.4,8.4,30.24,NNE,23,0.0,0.0,46,0.00,CLR,,0.02,WeatherDisplay:10.37,2013-02-06 22:50:00,
2013-02-06 17:55:00,26.4,8.4,30.24,NNE,24,0.0,0.0,46,0.00,CLR,,0.02,WeatherDisplay:10.37,2013-02-06 22:55:00,
2013-02-06 18:00:00,26.4,8.9,30.24,NNE,24,0.0,0.0,47,0.00,CLR,,0.02,WeatherDisplay:10.37,2013-02-06 23:00:00,
2013-02-06 18:05:00,26.4,8.9,30.23,NNE,24,0.0,0.0,47,0.00,CLR,,0.02,WeatherDisplay:10.37,2013-02-06 23:05:00,
2013-02-06 18:10:00,26.4,8.9,30.24,NNE,24,0.0,0.0,47,0.00,CLR,,0.02,WeatherDisplay:10.37,2013-02-06 23:10:00,
2013-02-06 18:15:00,23.2,6.8,30.24,NNE,24,0.0,0.0,49,0.00,CLR,,0.02,WeatherDisplay:10.37,2013-02-06 23:15:00,
2013-02-06 18:20:00,22.6,6.3,30.25,NNE,23,0.0,0.0,49,0.00,CLR,,0.02,WeatherDisplay:10.37,2013-02-06 23:20:00,
2013-02-06 18:25:00,22.5,6.2,30.25,NNE,22,0.0,0.0,49,0.00,CLR,,0.02,WeatherDisplay:10.37,2013-02-06 23:25:00,
2013-02-06 18:30:00,21.9,6.1,30.25,NNE,22,0.0,0.0,50,0.00,CLR,,0.02,WeatherDisplay:10.37,2013-02-06 23:30:00,
2013-02-06 18:35:00,21.9,6.5,30.26,NNE,22,0.0,0.0,51,0.00,CLR,,0.02,WeatherDisplay:10.37,2013-02-06 23:35:00,
2013-02-06 18:40:00,21.6,6.7,30.26,NNE,22,0.0,0.0,52,0.00,CLR,,0.02,WeatherDisplay:10.37,2013-02-06 23:40:00,
2013-02-06 18:45:00,21.4,6.5,30.26,NNE,22,0.0,0.0,52,0.00,CLR,,0.02,WeatherDisplay:10.37,2013-02-06 23:45:00,
2013-02-06 18:50:00,21.0,6.1,30.26,NNE,22,0.0,0.0,52,0.00,CLR,,0.02,WeatherDisplay:10.37,2013-02-06 23:50:00,
2013-02-06 18:55:00,20.8,5.9,30.27,NNE,22,0.0,0.0,52,0.00,CLR,,0.02,WeatherDisplay:10.37,2013-02-06 23:55:00,
2013-02-06 19:00:00,20.6,6.1,30.26,NNE,22,0.0,0.0,53,0.00,CLR,,0.02,WeatherDisplay:10.37,2013-02-07 00:00:00,
2013-02-06 19:05:00,20.3,5.9,30.26,NNE,22,0.0,0.0,53,0.00,CLR,,0.02,WeatherDisplay:10.37,2013-02-07 00:05:00,
2013-02-06 19:10:00,20.1,5.7,30.26,NNE,22,0.0,0.0,53,0.00,CLR,,0.02,WeatherDisplay:10.37,2013-02-07 00:10:00,
2013-02-06 19:15:00,20.0,6.0,30.26,NNE,22,0.0,0.0,54,0.00,CLR,,0.02,WeatherDisplay:10.37,2013-02-07 00:15:00,
2013-02-06 19:20:00,19.8,5.8,30.26,NNE,22,0.0,0.0,54,0.00,CLR,,0.02,WeatherDisplay:10.37,2013-02-07 00:20:00,
2013-02-06 19:25:00,19.5,5.5,30.26,NNE,22,0.0,0.0,54,0.00,CLR,,0.02,WeatherDisplay:10.37,2013-02-07 00:25:00,
2013-02-06 19:30:00,19.1,5.1,30.26,NNE,22,0.0,0.0,54,0.00,CLR,,0.02,WeatherDisplay:10.37,2013-02-07 00:30:00,
2013-02-06 19:35:00,19.0,5.5,30.27,NNE,22,0.0,0.0,55,0.00,CLR,,0.02,WeatherDisplay:10.37,2013-02-07 00:35:00,
2013-02-06 19:45:00,18.7,5.2,30.27,NNE,22,0.0,0.0,55,0.00,CLR,,0.02,WeatherDisplay:10.37,2013-02-07 00:45:00,
2013-02-06 19:50:00,18.5,5.4,30.27,NNE,22,0.0,0.0,56,0.00,CLR,,0.02,WeatherDisplay:10.37,2013-02-07 00:50:00,
2013-02-06 19:55:00,18.5,5.4,30.27,NNE,22,0.0,0.0,56,0.00,CLR,,0.02,WeatherDisplay:10.37,2013-02-07 00:55:00,
2013-02-06 20:00:00,18.3,5.2,30.27,NNE,22,0.0,0.0,56,0.00,CLR,,0.02,WeatherDisplay:10.37,2013-02-07 01:00:00,
2013-02-06 20:05:00,18.1,5.0,30.27,NNE,22,0.0,0.0,56,0.00,CLR,,0.02,WeatherDisplay:10.37,2013-02-07 01:05:00,
2013-02-06 20:10:00,18.0,5.3,30.27,NNE,22,0.0,0.0,57,0.00,CLR,,0.02,WeatherDisplay:10.37,2013-02-07 01:10:00,
2013-02-06 20:15:00,17.8,5.1,30.27,NNE,22,0.0,0.0,57,0.00,CLR,,0.02,WeatherDisplay:10.37,2013-02-07 01:15:00,
2013-02-06 20:20:00,17.8,5.1,30.28,NNE,22,0.0,0.0,57,0.00,CLR,,0.02,WeatherDisplay:10.37,2013-02-07 01:20:00,
2013-02-06 20:25:00,17.4,4.8,30.28,NNE,22,0.0,0.0,57,0.00,CLR,,0.02,WeatherDisplay:10.37,2013-02-07 01:25:00,
2013-02-06 20:30:00,17.4,5.1,30.27,NNE,22,0.0,0.0,58,0.00,CLR,,0.02,WeatherDisplay:10.37,2013-02-07 01:30:00,
2013-02-06 20:35:00,17.2,5.0,30.27,NNE,22,0.0,0.0,58,0.00,CLR,,0.02,WeatherDisplay:10.37,2013-02-07 01:35:00,
2013-02-06 20:40:00,17.2,5.3,30.27,NNE,22,0.0,0.0,59,0.00,CLR,,0.02,WeatherDisplay:10.37,2013-02-07 01:40:00,
2013-02-06 20:45:00,17.1,5.2,30.27,NNE,22,0.0,0.0,59,0.00,CLR,,0.02,WeatherDisplay:10.37,2013-02-07 01:45:00,
2013-02-06 20:50:00,16.9,5.0,30.27,NNE,22,0.0,0.0,59,0.00,CLR,,0.02,WeatherDisplay:10.37,2013-02-07 01:50:00,
2013-02-06 20:55:00,16.7,5.2,30.28,NNE,22,0.0,0.0,60,0.00,CLR,,0.02,WeatherDisplay:10.37,2013-02-07 01:55:00,
2013-02-06 21:00:00,16.7,5.2,30.29,NNE,22,0.0,0.0,60,0.00,CLR,,0.02,WeatherDisplay:10.37,2013-02-07 02:00:00,
2013-02-06 21:05:00,17.1,5.9,30.29,North,10,0.0,0.0,61,0.00,CLR,,0.02,WeatherDisplay:10.37,2013-02-07 02:05:00,
2013-02-06 21:10:00,16.7,5.6,30.29,North,0,0.0,0.0,61,0.00,CLR,,0.02,WeatherDisplay:10.37,2013-02-07 02:10:00,
2013-02-06 21:15:00,16.5,5.4,30.29,North,0,0.0,0.0,61,0.00,CLR,,0.02,WeatherDisplay:10.37,2013-02-07 02:15:00,
2013-02-06 21:20:00,16.4,5.3,30.29,North,0,0.0,0.0,61,0.00,CLR,,0.02,WeatherDisplay:10.37,2013-02-07 02:20:00,
2013-02-06 21:25:00,16.0,4.9,30.29,North,0,0.0,0.0,61,0.00,CLR,,0.02,WeatherDisplay:10.37,2013-02-07 02:25:00,
2013-02-06 21:30:00,16.0,4.9,30.29,North,0,0.0,0.0,61,0.00,CLR,,0.02,WeatherDisplay:10.37,2013-02-07 02:30:00,
2013-02-06 21:35:00,15.6,4.5,30.29,North,0,0.0,0.0,61,0.00,CLR,,0.02,WeatherDisplay:10.37,2013-02-07 02:35:00,
2013-02-06 21:40:00,15.4,4.4,30.29,North,0,0.0,0.0,61,0.00,CLR,,0.02,WeatherDisplay:10.37,2013-02-07 02:40:00,
2013-02-06 21:45:00,15.3,4.2,30.30,North,0,0.0,0.0,61,0.00,CLR,,0.02,WeatherDisplay:10.37,2013-02-07 02:45:00,
2013-02-06 21:50:00,15.1,4.0,30.30,North,0,0.0,0.0,61,0.00,CLR,,0.02,WeatherDisplay:10.37,2013-02-07 02:50:00,
2013-02-06 21:55:00,14.9,3.9,30.28,North,0,0.0,0.0,61,0.00,CLR,,0.02,WeatherDisplay:10.37,2013-02-07 02:55:00,
2013-02-06 22:00:00,14.7,4.0,30.28,North,0,0.0,0.0,62,0.00,CLR,,0.02,WeatherDisplay:10.37,2013-02-07 03:00:00,
2013-02-06 22:05:00,14.6,4.0,30.29,North,0,0.0,0.0,62,0.00,CLR,,0.02,WeatherDisplay:10.37,2013-02-07 03:05:00,
2013-02-06 22:10:00,14.4,3.7,30.29,North,0,0.0,0.0,62,0.00,CLR,,0.02,WeatherDisplay:10.37,2013-02-07 03:10:00,
2013-02-06 22:15:00,14.2,3.5,30.28,North,0,0.0,0.0,62,0.00,CLR,,0.02,WeatherDisplay:10.37,2013-02-07 03:15:00,
2013-02-06 22:20:00,14.2,3.5,30.28,North,0,0.0,0.0,62,0.00,CLR,,0.02,WeatherDisplay:10.37,2013-02-07 03:20:00,
2013-02-06 22:25:00,14.0,3.4,30.28,North,0,0.0,0.0,62,0.00,CLR,,0.02,WeatherDisplay:10.37,2013-02-07 03:25:00,
2013-02-06 22:30:00,13.8,3.5,30.28,North,0,0.0,0.0,63,0.00,CLR,,0.02,WeatherDisplay:10.37,2013-02-07 03:30:00,
2013-02-06 22:35:00,13.6,3.4,30.29,North,0,0.0,0.0,63,0.00,CLR,,0.02,WeatherDisplay:10.37,2013-02-07 03:35:00,
2013-02-06 22:40:00,13.5,3.2,30.29,North,0,0.0,0.0,63,0.00,CLR,,0.02,WeatherDisplay:10.37,2013-02-07 03:40:00,
2013-02-06 22:45:00,13.5,3.2,30.28,North,0,0.0,0.0,63,0.00,CLR,,0.02,WeatherDisplay:10.37,2013-02-07 03:45:00,
2013-02-06 22:50:00,13.3,3.4,30.28,North,0,0.0,0.0,64,0.00,CLR,,0.02,WeatherDisplay:10.37,2013-02-07 03:50:00,
2013-02-06 22:55:00,13.1,3.2,30.28,North,0,0.0,0.0,64,0.00,CLR,,0.02,WeatherDisplay:10.37,2013-02-07 03:55:00,
2013-02-06 23:00:00,13.1,3.2,30.28,North,0,0.0,0.0,64,0.00,CLR,,0.02,WeatherDisplay:10.37,2013-02-07 04:00:00,
2013-02-06 23:05:00,12.9,3.0,30.28,North,0,0.0,0.0,64,0.00,CLR,,0.02,WeatherDisplay:10.37,2013-02-07 04:05:00,
2013-02-06 23:10:00,12.9,3.4,30.27,North,0,0.0,0.0,65,0.00,CLR,,0.02,WeatherDisplay:10.37,2013-02-07 04:10:00,
2013-02-06 23:15:00,12.7,3.2,30.24,North,0,0.0,0.0,65,0.00,CLR,,0.02,WeatherDisplay:10.37,2013-02-07 04:15:00,
2013-02-06 23:20:00,12.6,3.0,30.24,North,0,0.0,0.0,65,0.00,CLR,,0.02,WeatherDisplay:10.37,2013-02-07 04:20:00,
2013-02-06 23:25:00,12.6,3.0,30.24,North,0,0.0,0.0,65,0.00,CLR,,0.02,WeatherDisplay:10.37,2013-02-07 04:25:00,
2013-02-06 23:30:00,12.4,2.8,30.25,North,0,0.0,0.0,65,0.00,CLR,,0.02,WeatherDisplay:10.37,2013-02-07 04:30:00,
2013-02-06 23:35:00,12.4,3.2,30.24,North,0,0.0,0.0,66,0.00,CLR,,0.02,WeatherDisplay:10.37,2013-02-07 04:35:00,
2013-02-06 23:40:00,12.4,3.2,30.26,North,0,0.0,0.0,66,0.00,CLR,,0.02,WeatherDisplay:10.37,2013-02-07 04:40:00,
2013-02-06 23:45:00,12.6,3.3,30.26,North,0,0.0,0.0,66,0.00,CLR,,0.02,WeatherDisplay:10.37,2013-02-07 04:45:00,
2013-02-06 23:50:00,12.9,3.7,30.26,North,0,0.0,0.0,66,0.00,CLR,,0.02,WeatherDisplay:10.37,2013-02-07 04:50:00,
2013-02-06 23:55:00,12.9,4.0,30.26,North,0,0.0,0.0,67,0.00,CLR,,0.02,WeatherDisplay:10.37,2013-02-07 04:55:00,